x

Magnolia Weather Station

6:55pm - Wed 29th Mar 2017 All times are CDT. -5 hours from GMT.

  • Wind
    15mph, 27mph gusts
  • Air Temp 75°f
  • Sea Pressure 1009.8mb
  • Magnolia
  • Magnolia

More Historic Weather Station data

Upgrade to MSW Pro to gain access to the past 30 days of data for over 8000 Wavebouys and Weather Stations around the globe.

Join Pro

Comparision Forecast

View Surf forecast
   
Wed 03/29 6:55pm 15 27 mph 1009.8mb 75f
6:35pm 16 24 mph 1009.8mb 75f
6:15pm 14 27 mph 1009.8mb 75f
5:55pm 14 27 mph 1009.8mb 75f
5:15pm 16 27 mph 1010.2mb 75f
4:55pm 16 29 mph 1010.2mb 75f
4:35pm 18 27 mph 1010.5mb 75f
4:15pm 18 25 mph 1010.5mb 75f
3:55pm 16 27 mph 1010.8mb 75f
3:35pm 14 24 mph 1010.8mb 75f
3:15pm 15 25 mph 1011.2mb 75f
2:55pm 14 27 mph 1011.5mb 77f
2:35pm 15 25 mph 1011.9mb 75f
2:15pm 17 25 mph 1011.9mb 75f
1:55pm 16 25 mph 1011.9mb 75f
1:15pm 20
mph
1012.5mb 75f
12:55pm 16 25 mph 1012.9mb 75f
12:15pm 16 24 mph 1012.9mb 75f
11:55am 15 28 mph 1012.5mb 75f
11:15am 20 30 mph 1012.2mb 75f
10:55am 17 31 mph 1012.2mb 75f
10:15am 20 29 mph 1011.5mb 75f
9:55am 18 31 mph 1011.2mb 75f
9:35am 17 29 mph 1010.8mb 75f
9:15am 16 36 mph 1010.8mb 75f
8:55am 14 32 mph 1010.8mb 75f
8:35am 17 29 mph 1010.8mb 75f
8:15am 17 28 mph 1010.8mb 75f
7:55am 15 24 mph 1010.8mb 75f
7:35am 15 27 mph 1010.5mb 75f
7:15am 16 30 mph 1009.8mb 75f
6:55am 21 33 mph 1009.1mb 75f
6:35am 17 29 mph 1009.5mb 75f
6:15am 18 36 mph 1009.5mb 75f
5:55am 18 35 mph 1008.8mb 75f
5:35am 22 35 mph 1008.1mb 75f
5:15am 21 45 mph 1007.8mb 73f
4:55am 25 37 mph 1007.5mb 73f
4:35am 22 35 mph 1007.5mb 73f
4:15am 22 36 mph 1007.1mb 73f
3:55am 20 31 mph 1008.5mb 73f
3:35am 17 30 mph 1008.1mb 73f
3:15am 18 30 mph 1008.8mb 73f
2:55am 17 25 mph 1009.1mb 73f
2:35am 15 24 mph 1009.8mb 73f
2:15am 13 27 mph 1010.2mb 73f
1:55am 12 21 mph 1010.2mb 73f
1:35am 14 25 mph 1010.8mb 73f
1:15am 16 24 mph 1011.2mb 73f
12:55am 16 25 mph 1011.5mb 73f
12:35am 16 25 mph 1011.9mb 73f
12:15am 16 25 mph 1012.2mb 73f
Tue 03/28 11:55pm 14 23 mph 1012.2mb 73f
11:35pm 15 23 mph 1012.5mb 75f
11:15pm 16 23 mph 1012.5mb 75f
10:55pm 13 23 mph 1012.9mb 75f
10:35pm 13 22 mph 1012.5mb 75f
10:15pm 16 22 mph 1012.2mb 75f
9:55pm 13 20 mph 1012.9mb 75f
9:35pm 9 20 mph 1012.9mb 75f
9:15pm 9 17 mph 1012.5mb 75f
8:55pm 8 17 mph 1012.2mb 75f
8:35pm 9 16 mph 1012.2mb 75f
8:15pm 9 22 mph 1012.2mb 75f
7:55pm 10 18 mph 1011.5mb 73f
7:35pm 12 20 mph 1011.5mb 75f
7:15pm 9 16 mph 1011.9mb 75f
6:55pm 15 27 mph 1009.8mb 75f
6:35pm 9 17 mph 1011.9mb 75f
6:15pm 10 16 mph 1011.9mb 75f
5:55pm 9 16 mph 1011.9mb 75f
5:35pm 8 14 mph 1011.9mb 75f
5:15pm 9 16 mph 1011.9mb 77f
4:55pm 8 17 mph 1012.2mb 77f
4:35pm 10 16 mph 1012.2mb 77f
4:15pm 9 18 mph 1012.2mb 77f
3:55pm 10 20 mph 1012.5mb 77f
3:35pm 10 18 mph 1012.9mb 77f
3:15pm 13 20 mph 1013.2mb 77f
2:55pm 10 21 mph 1013.2mb 77f
2:35pm 9 16 mph 1013.5mb 77f
2:15pm 8 15 mph 1013.9mb 75f
1:55pm 9 17 mph 1014.2mb 75f
1:35pm 9 16 mph 1014.6mb 75f
1:15pm 8 15 mph 1014.9mb 75f
12:55pm 7 14 mph 1014.9mb 75f
12:15pm 9 16 mph 1015.2mb 75f
11:55am 8 15 mph 1015.2mb 75f
11:15am 9 17 mph 1015.2mb 75f
10:55am 9 15 mph 1014.9mb 75f
10:15am 7 15 mph 1014.9mb 75f
9:55am 8
mph
1014.9mb 75f
9:35am 8
mph
1014.9mb 75f
9:15am 7
mph
1014.9mb 73f
8:55am 7 13 mph 1014.9mb 73f
8:35am 7 16 mph 1014.6mb 73f
8:15am 13
mph
1014.9mb 73f
7:55am 12 18 mph 1014.6mb 73f
7:35am 14 39 mph 1014.6mb 73f
7:15am 9 16 mph 1014.2mb 73f
6:55am 7
mph
1013.9mb 73f
6:35am 7
mph
1013.5mb 73f
6:15am 5
mph
1013.2mb 73f
5:55am 6 12 mph 1012.9mb 73f
5:35am 7 14 mph 1012.9mb 73f
5:15am 8 14 mph 1012.5mb 73f
4:55am 9
mph
1012.5mb 73f
4:35am 7 14 mph 1012.5mb 73f
4:15am 6 15 mph 1012.5mb 73f
3:55am 9 18 mph 1012.9mb 73f
3:35am 13
mph
1012.9mb 73f
3:15am 13 20 mph 1013.2mb 73f
2:55am 12 20 mph 1013.2mb 73f
2:35am 12 20 mph 1013.2mb 73f
2:15am 16 22 mph 1013.5mb 73f
1:55am 15 21 mph 1013.5mb 73f
1:35am 15 22 mph 1013.5mb 73f
1:15am 12 20 mph 1013.5mb 73f
12:55am 16 23 mph 1013.9mb 73f
12:35am 15
mph
1013.9mb 73f
12:15am 15 23 mph 1013.9mb 73f
Mon 03/27 11:55pm 14 23 mph 1013.9mb 73f
11:35pm 15
mph
1014.2mb 73f
11:15pm 13 21 mph 1014.2mb 73f
10:55pm 13 22 mph 1014.2mb 73f
10:35pm 14 22 mph 1014.2mb 73f
10:15pm 14 23 mph 1014.2mb 73f
9:55pm 15 23 mph 1013.9mb 73f
9:15pm 13 24 mph 1013.5mb 73f
8:55pm 13 23 mph 1013.5mb 73f
8:35pm 12 22 mph 1013.5mb 73f
8:15pm 14 20 mph 1013.5mb 73f
7:55pm 12 20 mph 1013.5mb 73f
7:35pm 10 18 mph 1013.5mb 73f
7:15pm 10 21 mph 1013.5mb 75f
6:55pm 9 16 mph 1011.9mb 75f
6:35pm 9 20 mph 1013.2mb 75f
6:15pm 10 20 mph 1013.2mb 75f
5:55pm 12 22 mph 1012.9mb 75f
5:35pm 10 18 mph 1012.9mb 75f
5:15pm 12 20 mph 1013.2mb 75f
4:55pm 10 17 mph 1013.2mb 75f
4:35pm 10 21 mph 1013.5mb 75f
4:15pm 10 21 mph 1013.5mb 75f
3:55pm 13 22 mph 1013.5mb 75f
3:15pm 13 21 mph 1013.5mb 75f
2:55pm 13 21 mph 1013.9mb 75f
2:35pm 14 21 mph 1014.2mb 75f
2:15pm 15 23 mph 1014.2mb 75f
1:55pm 12 22 mph 1014.6mb 75f
1:35pm 10 20 mph 1014.6mb 75f
1:15pm 12 20 mph 1014.6mb 75f
12:55pm 13 24 mph 1014.9mb 75f
12:35pm 15 28 mph 1014.9mb 75f
12:15pm 14 23 mph 1014.9mb 75f
11:55am 15 23 mph 1014.9mb 75f
11:35am 14 28 mph 1015.2mb 75f
11:15am 10 23 mph 1015.2mb 75f
10:55am 12 28 mph 1015.2mb 75f
10:15am 12 24 mph 1014.9mb 75f
9:55am 13 25 mph 1014.6mb 75f
9:35am 9 22 mph 1014.9mb 73f
9:15am 16 22 mph 1014.6mb 73f
8:55am 12 18 mph 1014.6mb 73f
8:35am 10 21 mph 1014.6mb 73f
8:15am 13 29 mph 1014.6mb 73f
7:55am 15 25 mph 1014.2mb 73f
7:35am 15 27 mph 1014.2mb 73f
7:15am 12 25 mph 1013.9mb 73f
6:55am 16 24 mph 1013.5mb 73f
6:35am 10 20 mph 1013.5mb 73f
6:15am 14
mph
1013.9mb 73f
5:55am 13 20 mph 1013.5mb 73f
5:35am 15 23 mph 1013.2mb 73f
5:15am 10 21 mph 1013.2mb 73f
4:55am 12 20 mph 1013.5mb 73f
4:15am 13 22 mph 1013.9mb 73f
3:55am 17
mph
1013.5mb 73f
3:35am 14 21 mph 1013.5mb 73f
3:15am 16 24 mph 1013.5mb 73f
2:55am 16
mph
1013.9mb 73f
2:35am 17
mph
1013.9mb 73f
2:15am 16
mph
1014.2mb 73f
1:55am 17
mph
1014.2mb 73f
1:35am 17 25 mph 1014.2mb 73f
1:15am 21 27 mph 1013.9mb 73f
12:55am 18 25 mph 1013.9mb 73f
12:35am 16 28 mph 1014.2mb 73f
12:15am 20 27 mph 1014.2mb 73f
Sun 03/26 11:55pm 21 29 mph 1014.2mb 73f
11:35pm 16 28 mph 1014.2mb 73f
11:15pm 12 29 mph 1014.2mb 73f
10:55pm 13 27 mph 1014.6mb 73f
10:35pm 14 24 mph 1014.6mb 73f
10:15pm 12 25 mph 1014.6mb 73f
9:55pm 16 22 mph 1014.6mb 73f
9:35pm 12 22 mph 1014.9mb 73f
9:15pm 12 22 mph 1014.9mb 73f
8:55pm 14 21 mph 1014.2mb 73f
8:15pm 14 22 mph 1013.9mb 73f
7:55pm 12 22 mph 1013.9mb 73f
7:35pm 10 18 mph 1014.2mb 73f
7:15pm 13 22 mph 1014.2mb 73f
6:55pm 13 20 mph 1013.5mb 75f
6:15pm 15 23 mph 1014.2mb 75f
5:55pm 10 20 mph 1014.2mb 75f
5:15pm 14 22 mph 1014.6mb 75f
4:55pm 13 21 mph 1014.6mb 75f
4:35pm 15
mph
1014.9mb 75f
4:15pm 15 21 mph 1014.9mb 75f
3:55pm 13 20 mph 1015.2mb 75f
3:35pm 14
mph
1015.6mb 75f
3:15pm 16
mph
1015.6mb 75f
2:55pm 15
mph
1015.6mb 75f
2:35pm 14
mph
1015.6mb 75f
2:15pm 12 18 mph 1015.9mb 75f
1:55pm 12 18 mph 1015.9mb 75f
1:35pm 14
mph
1016.3mb 75f
1:15pm 14
mph
1016.3mb 73f
12:55pm 14
mph
1016.6mb 73f
12:35pm 20
mph
1016.9mb 73f
12:15pm 18 24 mph 1016.9mb 73f
11:55am 16
mph
1016.9mb 73f
11:35am 14 21 mph 1016.9mb 73f
11:15am 14 20 mph 1016.9mb 73f
10:55am 13 22 mph 1016.9mb 73f
10:35am 17
mph
1016.9mb 73f
10:15am 14 22 mph 1016.9mb 73f
9:55am 15 23 mph 1016.6mb 73f
9:35am 15 22 mph 1016.6mb 73f
9:15am 15 21 mph 1016.6mb 73f
8:55am 15 21 mph 1016.3mb 73f
8:35am 16
mph
1015.9mb 73f
8:15am 15
mph
1015.9mb 73f
7:55am 12 20 mph 1015.6mb 73f
7:15am 14
mph
1015.2mb 73f
6:55am 14
mph
1014.9mb 73f
6:35am 13
mph
1014.9mb 73f
6:15am 13 18 mph 1014.9mb 73f
5:55am 15
mph
1014.6mb 73f
5:35am 12
mph
1014.6mb 73f
5:15am 14
mph
1014.2mb 72f
4:55am 13 18 mph 1014.2mb 73f
4:35am 12
mph
1014.6mb 73f
4:15am 14
mph
1014.6mb 73f
3:55am 14
mph
1014.9mb 73f
3:35am 14
mph
1014.9mb 73f
3:15am 14
mph
1014.9mb 73f
2:55am 16
mph
1015.2mb 73f
2:35am 15
mph
1015.2mb 73f
2:15am 15
mph
1015.6mb 73f
1:55am 14
mph
1015.9mb 73f
1:35am 15
mph
1015.9mb 73f
1:15am 15
mph
1015.9mb 73f
12:55am 13
mph
1015.9mb 73f
12:35am 13
mph
1016.3mb 73f
12:15am 15
mph
1016.3mb 73f